YAOGAN-31 E (47533 NORAD) Tracking and Keplerian Element Data

This shows tracking and keplerian element data for the satellite.

Feedback or suggestion? Click here.




ElementValue
Catalog47533
NameYAOGAN-31 E
Epoch Orbit980
Epoch Day102.06187866
Epoch Year2021
RAAN321.2311
Inclination63.4098
Eccentricity0.0010557
Argument of Perigee304.8542
Mean Anonmoly55.1472
Mean Motion13.4520949
Decay Rate-3.1E-07
L11 47533U 21007B 21102.06187866 -.00000031 00000-0 10000-3 0 9999
L22 47533 63.4098 321.2311 0010557 304.8542 55.1472 13.45209490 9809

Live tracking and technical data element details for YAOGAN-31 E (NORAD 47533). YAOGAN-31 E can be tracked NOW for your location showing map with azimuth and elevation plus other details from your city location.

Track the satellite on the map from your city or location and see movement details for azimuth, elevation, latitude, longitude, range, height, and movement on the map or in text.







IsCatalogInMostPopularTable: catalog: 47533, numindb: 12
Update: records affected: 1



GetName: 47533 YAOGAN-31 E

Hit Count: updated at: Tue, 13 Apr 2021 05:20:27 GMT